Time,TemperatureF,DewpointF,PressureIn,WindDirection,WindDirectionDegrees,WindSpeedMPH,WindSpeedGustMPH,Humidity,HourlyPrecipIn,Conditions,Clouds,dailyrainin,SoftwareType,DateUTC
2013-06-13 00:01:00,54.0,35.8,29.78,NW,315,1.8,5.4,50,0.00,,,0.00,WUHU216HW,2013-06-13 07:01:00,
2013-06-13 00:06:00,54.0,36.3,29.77,NNW,338,3.4,5.4,51,0.00,,,0.00,WUHU216HW,2013-06-13 07:06:00,
2013-06-13 00:11:00,54.0,36.3,29.77,NNW,338,1.1,3.4,51,0.00,,,0.00,WUHU216HW,2013-06-13 07:11:00,
2013-06-13 00:16:00,54.0,35.8,29.77,NNW,338,1.1,2.9,50,0.00,,,0.00,WUHU216HW,2013-06-13 07:16:00,
2013-06-13 00:21:00,54.0,36.3,29.78,NW,315,1.1,4.3,51,0.00,,,0.00,WUHU216HW,2013-06-13 07:21:00,
2013-06-13 00:26:00,54.0,36.3,29.78,NW,315,2.2,4.3,51,0.00,,,0.00,WUHU216HW,2013-06-13 07:26:00,
2013-06-13 00:31:00,53.8,35.7,29.78,North,0,1.6,3.4,50,0.00,,,0.00,WUHU216HW,2013-06-13 07:31:00,
2013-06-13 00:36:00,53.6,34.9,29.77,NW,315,2.5,3.8,49,0.00,,,0.00,WUHU216HW,2013-06-13 07:36:00,
2013-06-13 00:41:00,53.6,34.9,29.78,NNW,338,1.1,3.8,49,0.00,,,0.00,WUHU216HW,2013-06-13 07:41:00,
2013-06-13 00:46:00,53.6,34.9,29.78,North,0,1.8,3.4,49,0.00,,,0.00,WUHU216HW,2013-06-13 07:46:00,
2013-06-13 00:51:00,53.5,34.7,29.77,NNW,338,1.6,2.9,49,0.00,,,0.00,WUHU216HW,2013-06-13 07:51:00,
2013-06-13 00:56:00,53.3,34.6,29.77,NNW,338,1.1,2.9,49,0.00,,,0.00,WUHU216HW,2013-06-13 07:56:00,
2013-06-13 01:01:00,53.3,34.6,29.78,West,270,1.1,2.0,49,0.00,,,0.00,WUHU216HW,2013-06-13 08:01:00,
2013-06-13 01:06:00,53.3,34.6,29.78,NNW,338,1.1,2.0,49,0.00,,,0.00,WUHU216HW,2013-06-13 08:06:00,
2013-06-13 01:11:00,53.1,33.8,29.78,WNW,293,0.0,1.8,48,0.00,,,0.00,WUHU216HW,2013-06-13 08:11:00,
2013-06-13 01:16:00,53.1,33.8,29.78,NNW,338,1.6,1.8,48,0.00,,,0.00,WUHU216HW,2013-06-13 08:16:00,
2013-06-13 01:21:00,53.1,33.3,29.78,NW,315,0.4,2.0,47,0.00,,,0.00,WUHU216HW,2013-06-13 08:21:00,
2013-06-13 01:26:00,53.1,33.3,29.78,WNW,293,1.1,2.0,47,0.00,,,0.00,WUHU216HW,2013-06-13 08:26:00,
2013-06-13 01:31:00,53.1,33.3,29.78,NW,315,2.9,2.9,47,0.00,,,0.00,WUHU216HW,2013-06-13 08:31:00,
2013-06-13 01:36:00,52.9,32.6,29.77,NNW,338,0.9,2.9,46,0.00,,,0.00,WUHU216HW,2013-06-13 08:36:00,
2013-06-13 01:41:00,52.9,32.6,29.77,NNW,338,1.1,2.9,46,0.00,,,0.00,WUHU216HW,2013-06-13 08:41:00,
2013-06-13 01:46:00,52.9,32.1,29.78,NNW,338,1.3,2.7,45,0.00,,,0.00,WUHU216HW,2013-06-13 08:46:00,
2013-06-13 01:51:00,52.9,32.6,29.77,NW,315,1.1,2.7,46,0.00,,,0.00,WUHU216HW,2013-06-13 08:51:00,
2013-06-13 01:56:00,52.9,32.6,29.77,NNW,338,0.7,1.8,46,0.00,,,0.00,WUHU216HW,2013-06-13 08:56:00,
2013-06-13 02:01:00,52.9,32.1,29.77,West,270,0.4,1.8,45,0.00,,,0.00,WUHU216HW,2013-06-13 09:01:00,
2013-06-13 02:06:00,52.9,32.1,29.77,WNW,293,0.4,1.8,45,0.00,,,0.00,WUHU216HW,2013-06-13 09:06:00,
2013-06-13 02:11:00,52.9,32.1,29.77,NW,315,1.8,1.8,45,0.00,,,0.00,WUHU216HW,2013-06-13 09:11:00,
2013-06-13 02:16:00,52.9,32.1,29.77,WNW,293,0.0,1.8,45,0.00,,,0.00,WUHU216HW,2013-06-13 09:16:00,
2013-06-13 02:21:00,52.9,32.1,29.77,NW,315,0.0,1.8,45,0.00,,,0.00,WUHU216HW,2013-06-13 09:21:00,
2013-06-13 02:26:00,52.9,31.5,29.77,West,270,1.8,2.5,44,0.00,,,0.00,WUHU216HW,2013-06-13 09:26:00,
2013-06-13 02:31:00,52.9,31.5,29.77,NNW,338,2.0,2.9,44,0.00,,,0.00,WUHU216HW,2013-06-13 09:31:00,
2013-06-13 02:36:00,52.9,29.8,29.77,NW,315,2.2,2.9,41,0.00,,,0.00,WUHU216HW,2013-06-13 09:36:00,
2013-06-13 02:41:00,52.9,30.9,29.77,NNW,338,1.6,2.9,43,0.00,,,0.00,WUHU216HW,2013-06-13 09:41:00,
2013-06-13 02:46:00,52.9,30.3,29.78,North,0,1.1,2.9,42,0.00,,,0.00,WUHU216HW,2013-06-13 09:46:00,
2013-06-13 02:51:00,53.1,30.5,29.77,NNW,338,0.0,2.5,42,0.00,,,0.00,WUHU216HW,2013-06-13 09:51:00,
2013-06-13 02:56:00,53.1,30.5,29.78,NW,315,2.2,2.2,42,0.00,,,0.00,WUHU216HW,2013-06-13 09:56:00,
2013-06-13 03:01:00,53.1,30.5,29.77,NNW,338,0.4,2.2,42,0.00,,,0.00,WUHU216HW,2013-06-13 10:01:00,
2013-06-13 03:06:00,53.1,30.5,29.78,North,0,1.1,2.0,42,0.00,,,0.00,WUHU216HW,2013-06-13 10:06:00,
2013-06-13 03:11:00,53.1,30.0,29.78,North,0,1.6,2.5,41,0.00,,,0.00,WUHU216HW,2013-06-13 10:11:00,
2013-06-13 03:16:00,53.1,30.0,29.78,NW,315,1.1,2.5,41,0.00,,,0.00,WUHU216HW,2013-06-13 10:16:00,
2013-06-13 03:22:00,53.1,29.4,29.78,NNW,338,1.1,2.5,40,0.00,,,0.00,WUHU216HW,2013-06-13 10:22:00,
2013-06-13 03:27:00,53.1,29.4,29.78,NW,315,0.9,2.5,40,0.00,,,0.00,WUHU216HW,2013-06-13 10:27:00,
2013-06-13 03:32:00,53.1,29.4,29.78,North,0,1.6,2.5,40,0.00,,,0.00,WUHU216HW,2013-06-13 10:32:00,
2013-06-13 03:37:00,53.1,29.4,29.78,NW,315,1.1,2.7,40,0.00,,,0.00,WUHU216HW,2013-06-13 10:37:00,
2013-06-13 03:42:00,53.1,28.7,29.78,NNW,338,1.3,2.7,39,0.00,,,0.00,WUHU216HW,2013-06-13 10:42:00,
2013-06-13 03:47:00,53.1,29.4,29.78,North,0,1.1,2.0,40,0.00,,,0.00,WUHU216HW,2013-06-13 10:47:00,
2013-06-13 03:52:00,53.1,28.7,29.77,NNW,338,0.0,1.8,39,0.00,,,0.00,WUHU216HW,2013-06-13 10:52:00,
2013-06-13 03:57:00,53.1,28.7,29.78,NW,315,0.4,1.1,39,0.00,,,0.00,WUHU216HW,2013-06-13 10:57:00,
2013-06-13 04:02:00,53.1,28.7,29.77,NNW,338,0.0,1.8,39,0.00,,,0.00,WUHU216HW,2013-06-13 11:02:00,
2013-06-13 04:07:00,53.1,28.7,29.77,NW,315,0.2,1.8,39,0.00,,,0.00,WUHU216HW,2013-06-13 11:07:00,
2013-06-13 04:12:00,53.1,29.4,29.77,NNW,338,0.0,1.6,40,0.00,,,0.00,WUHU216HW,2013-06-13 11:12:00,
2013-06-13 04:17:00,52.9,28.5,29.77,NW,315,0.9,1.6,39,0.00,,,0.00,WUHU216HW,2013-06-13 11:17:00,
2013-06-13 04:22:00,52.9,28.5,29.77,NW,315,0.4,0.9,39,0.00,,,0.00,WUHU216HW,2013-06-13 11:22:00,
2013-06-13 04:27:00,52.9,28.5,29.77,NW,315,0.0,0.9,39,0.00,,,0.00,WUHU216HW,2013-06-13 11:27:00,
2013-06-13 04:32:00,52.9,28.5,29.77,NW,315,0.0,0.7,39,0.00,,,0.00,WUHU216HW,2013-06-13 11:32:00,
2013-06-13 04:37:00,52.9,29.3,29.77,NW,315,0.0,0.0,40,0.00,,,0.00,WUHU216HW,2013-06-13 11:37:00,
2013-06-13 04:42:00,52.7,28.4,29.77,West,270,0.0,0.0,39,0.00,,,0.00,WUHU216HW,2013-06-13 11:42:00,
2013-06-13 04:47:00,52.7,28.4,29.77,West,270,0.0,0.0,39,0.00,,,0.00,WUHU216HW,2013-06-13 11:47:00,
2013-06-13 04:52:00,52.7,28.4,29.78,West,270,0.0,0.0,39,0.00,,,0.00,WUHU216HW,2013-06-13 11:52:00,
2013-06-13 04:57:00,52.7,28.4,29.77,West,270,0.0,0.0,39,0.00,,,0.00,WUHU216HW,2013-06-13 11:57:00,
2013-06-13 05:02:00,52.7,28.4,29.77,West,270,0.0,0.0,39,0.00,,,0.00,WUHU216HW,2013-06-13 12:02:00,
2013-06-13 05:07:00,52.7,27.7,29.77,West,270,0.0,0.0,38,0.00,,,0.00,WUHU216HW,2013-06-13 12:07:00,
2013-06-13 05:12:00,52.7,27.7,29.78,West,270,0.0,0.0,38,0.00,,,0.00,WUHU216HW,2013-06-13 12:12:00,
2013-06-13 05:17:00,52.7,27.7,29.78,NW,315,0.0,0.0,38,0.00,,,0.00,WUHU216HW,2013-06-13 12:17:00,
2013-06-13 05:22:00,52.7,27.7,29.78,NW,315,0.0,0.0,38,0.00,,,0.00,WUHU216HW,2013-06-13 12:22:00,
2013-06-13 05:27:00,52.7,27.7,29.77,NW,315,0.0,0.0,38,0.00,,,0.00,WUHU216HW,2013-06-13 12:27:00,
2013-06-13 05:32:00,52.7,27.0,29.78,NW,315,0.0,0.0,37,0.00,,,0.00,WUHU216HW,2013-06-13 12:32:00,
2013-06-13 05:37:00,52.7,27.0,29.78,NW,315,0.0,0.0,37,0.00,,,0.00,WUHU216HW,2013-06-13 12:37:00,
2013-06-13 05:42:00,52.9,27.2,29.78,NW,315,0.0,0.0,37,0.00,,,0.00,WUHU216HW,2013-06-13 12:42:00,
2013-06-13 05:47:00,52.9,27.2,29.78,NW,315,0.0,0.0,37,0.00,,,0.00,WUHU216HW,2013-06-13 12:47:00,
2013-06-13 05:52:00,52.9,27.2,29.78,NNE,23,0.0,0.0,37,0.00,,,0.00,WUHU216HW,2013-06-13 12:52:00,
2013-06-13 05:57:00,52.9,27.2,29.78,NNE,23,0.0,0.0,37,0.00,,,0.00,WUHU216HW,2013-06-13 12:57:00,
2013-06-13 06:02:00,52.9,27.2,29.78,NNE,23,0.0,0.0,37,0.00,,,0.00,WUHU216HW,2013-06-13 13:02:00,
2013-06-13 06:07:00,53.1,27.4,29.78,NNE,23,0.0,0.0,37,0.00,,,0.00,WUHU216HW,2013-06-13 13:07:00,
2013-06-13 06:12:00,53.3,26.8,29.78,NNE,23,0.0,0.0,36,0.00,,,0.00,WUHU216HW,2013-06-13 13:12:00,
2013-06-13 06:18:00,53.3,26.8,29.78,NNE,23,0.0,0.0,36,0.00,,,0.00,WUHU216HW,2013-06-13 13:18:00,
2013-06-13 06:22:00,53.3,27.6,29.78,NNE,23,0.0,0.0,37,0.00,,,0.00,WUHU216HW,2013-06-13 13:22:00,
2013-06-13 06:28:00,53.5,27.0,29.78,NNE,23,0.0,0.0,36,0.00,,,0.00,WUHU216HW,2013-06-13 13:28:00,
2013-06-13 06:32:00,53.6,27.2,29.79,NNE,23,0.0,0.0,36,0.00,,,0.00,WUHU216HW,2013-06-13 13:32:00,
2013-06-13 06:38:00,53.6,27.8,29.79,North,0,0.2,0.2,37,0.00,,,0.00,WUHU216HW,2013-06-13 13:38:00,
2013-06-13 06:43:00,53.8,28.0,29.79,North,0,0.0,0.4,37,0.00,,,0.00,WUHU216HW,2013-06-13 13:43:00,
2013-06-13 06:48:00,54.0,27.5,29.79,North,0,0.0,0.4,36,0.00,,,0.00,WUHU216HW,2013-06-13 13:48:00,
2013-06-13 06:53:00,54.2,27.6,29.79,NNW,338,0.0,0.0,36,0.00,,,0.00,WUHU216HW,2013-06-13 13:53:00,
2013-06-13 06:58:00,54.4,27.7,29.79,ENE,68,0.0,1.1,36,0.00,,,0.00,WUHU216HW,2013-06-13 13:58:00,
2013-06-13 07:03:00,54.4,28.4,29.79,NE,45,0.0,1.1,37,0.00,,,0.00,WUHU216HW,2013-06-13 14:03:00,
2013-06-13 07:08:00,54.4,27.1,29.79,NE,45,2.5,2.5,35,0.00,,,0.00,WUHU216HW,2013-06-13 14:08:00,
2013-06-13 07:13:00,54.4,27.7,29.79,ENE,68,1.3,2.9,36,0.00,,,0.00,WUHU216HW,2013-06-13 14:13:00,
2013-06-13 07:18:00,54.4,26.4,29.79,ENE,68,2.2,4.0,34,0.00,,,0.00,WUHU216HW,2013-06-13 14:18:00,
2013-06-13 07:23:00,54.4,25.0,29.79,ENE,68,1.1,4.0,32,0.00,,,0.00,WUHU216HW,2013-06-13 14:23:00,
2013-06-13 07:28:00,54.2,24.1,29.79,NE,45,1.8,4.0,31,0.00,,,0.00,WUHU216HW,2013-06-13 14:28:00,
2013-06-13 07:33:00,54.4,25.0,29.79,ENE,68,0.0,2.9,32,0.00,,,0.00,WUHU216HW,2013-06-13 14:33:00,
2013-06-13 07:38:00,54.7,25.3,29.79,ENE,68,1.1,2.9,32,0.00,,,0.00,WUHU216HW,2013-06-13 14:38:00,
2013-06-13 07:43:00,54.9,26.1,29.79,SE,135,0.0,2.5,33,0.00,,,0.00,WUHU216HW,2013-06-13 14:43:00,
2013-06-13 07:48:00,55.1,27.0,29.79,ENE,68,0.4,1.8,34,0.00,,,0.00,WUHU216HW,2013-06-13 14:48:00,
2013-06-13 07:53:00,55.3,29.3,29.79,ENE,68,0.0,1.8,37,0.00,,,0.00,WUHU216HW,2013-06-13 14:53:00,
2013-06-13 07:58:00,55.3,29.3,29.79,ENE,68,1.1,2.0,37,0.00,,,0.00,WUHU216HW,2013-06-13 14:58:00,
2013-06-13 08:03:00,55.4,29.4,29.79,NE,45,0.0,2.0,37,0.00,,,0.00,WUHU216HW,2013-06-13 15:03:00,
2013-06-13 08:08:00,55.6,29.5,29.79,SE,135,0.9,2.2,37,0.00,,,0.00,WUHU216HW,2013-06-13 15:08:00,
2013-06-13 08:13:00,56.0,29.2,29.79,SW,225,1.6,2.2,36,0.00,,,0.00,WUHU216HW,2013-06-13 15:13:00,
2013-06-13 08:18:00,56.5,31.8,29.79,South,180,1.6,1.8,39,0.00,,,0.00,WUHU216HW,2013-06-13 15:18:00,
2013-06-13 08:23:00,57.1,32.9,29.79,SSE,158,0.7,2.5,40,0.00,,,0.00,WUHU216HW,2013-06-13 15:23:00,
2013-06-13 08:28:00,57.2,34.8,29.79,ENE,68,1.1,2.5,43,0.00,,,0.00,WUHU216HW,2013-06-13 15:28:00,
2013-06-13 08:33:00,57.2,36.0,29.79,SE,135,3.6,3.6,45,0.00,,,0.00,WUHU216HW,2013-06-13 15:33:00,
2013-06-13 08:38:00,57.2,36.5,29.79,SW,225,2.9,3.6,46,0.00,,,0.00,WUHU216HW,2013-06-13 15:38:00,
2013-06-13 08:43:00,57.4,37.4,29.79,North,0,1.1,2.9,47,0.00,,,0.00,WUHU216HW,2013-06-13 15:43:00,
2013-06-13 08:48:00,57.6,36.9,29.80,SSE,158,1.1,2.2,46,0.00,,,0.00,WUHU216HW,2013-06-13 15:48:00,
2013-06-13 08:53:00,58.0,38.3,29.79,SSE,158,2.9,3.1,48,0.00,,,0.00,WUHU216HW,2013-06-13 15:53:00,
2013-06-13 08:58:00,58.5,40.1,29.79,South,180,1.3,3.1,50,0.00,,,0.00,WUHU216HW,2013-06-13 15:58:00,
2013-06-13 09:03:00,59.4,40.2,29.79,SSE,158,2.7,5.4,49,0.00,,,0.00,WUHU216HW,2013-06-13 16:03:00,
2013-06-13 09:08:00,60.7,42.9,29.79,SSW,203,3.8,5.4,52,0.00,,,0.00,WUHU216HW,2013-06-13 16:08:00,
2013-06-13 09:13:00,61.4,43.6,29.80,West,270,1.8,4.9,52,0.00,,,0.00,WUHU216HW,2013-06-13 16:13:00,
2013-06-13 09:18:00,61.4,44.6,29.79,SSW,203,4.5,4.5,54,0.00,,,0.00,WUHU216HW,2013-06-13 16:18:00,
2013-06-13 09:23:00,61.4,45.6,29.79,SSW,203,3.1,4.5,56,0.00,,,0.00,WUHU216HW,2013-06-13 16:23:00,
2013-06-13 09:28:00,61.7,45.8,29.79,SE,135,1.3,4.3,56,0.00,,,0.00,WUHU216HW,2013-06-13 16:28:00,
2013-06-13 09:33:00,61.9,46.5,29.79,SW,225,0.4,3.4,57,0.00,,,0.00,WUHU216HW,2013-06-13 16:33:00,
2013-06-13 09:38:00,61.7,46.4,29.80,SSW,203,5.4,5.4,57,0.00,,,0.00,WUHU216HW,2013-06-13 16:38:00,
2013-06-13 09:43:00,62.1,46.6,29.80,SW,225,2.5,5.4,57,0.00,,,0.00,WUHU216HW,2013-06-13 16:43:00,
2013-06-13 09:48:00,62.5,46.5,29.80,South,180,3.4,3.6,56,0.00,,,0.00,WUHU216HW,2013-06-13 16:48:00,
2013-06-13 09:53:00,62.5,47.0,29.80,WSW,248,4.3,4.3,57,0.00,,,0.00,WUHU216HW,2013-06-13 16:53:00,
2013-06-13 09:58:00,62.3,47.4,29.80,South,180,3.8,4.3,58,0.00,,,0.00,WUHU216HW,2013-06-13 16:58:00,
2013-06-13 10:03:00,62.1,47.2,29.80,SE,135,1.3,3.8,58,0.00,,,0.00,WUHU216HW,2013-06-13 17:03:00,
2013-06-13 10:08:00,61.6,47.6,29.80,ENE,68,2.5,3.1,60,0.00,,,0.00,WUHU216HW,2013-06-13 17:08:00,
2013-06-13 10:13:00,60.8,47.0,29.80,NE,45,2.2,3.6,60,0.00,,,0.00,WUHU216HW,2013-06-13 17:13:00,
2013-06-13 10:18:00,60.8,46.5,29.80,ENE,68,1.8,4.7,59,0.00,,,0.00,WUHU216HW,2013-06-13 17:18:00,
2013-06-13 10:23:00,60.8,46.5,29.80,South,180,2.5,4.7,59,0.00,,,0.00,WUHU216HW,2013-06-13 17:23:00,
2013-06-13 10:28:00,60.8,46.5,29.80,South,180,3.4,3.4,59,0.00,,,0.00,WUHU216HW,2013-06-13 17:28:00,
2013-06-13 10:33:00,61.2,46.4,29.80,SE,135,2.2,4.0,58,0.00,,,0.00,WUHU216HW,2013-06-13 17:33:00,
2013-06-13 10:38:00,61.4,47.0,29.80,SE,135,1.8,4.0,59,0.00,,,0.00,WUHU216HW,2013-06-13 17:38:00,
2013-06-13 10:43:00,61.6,47.2,29.80,SE,135,2.0,3.4,59,0.00,,,0.00,WUHU216HW,2013-06-13 17:43:00,
2013-06-13 10:48:00,61.4,47.0,29.80,SSE,158,4.0,4.0,59,0.00,,,0.00,WUHU216HW,2013-06-13 17:48:00,
2013-06-13 10:53:00,61.6,47.2,29.80,SE,135,2.5,4.0,59,0.00,,,0.00,WUHU216HW,2013-06-13 17:53:00,
2013-06-13 10:58:00,61.7,47.4,29.81,SSW,203,1.1,3.4,59,0.00,,,0.00,WUHU216HW,2013-06-13 17:58:00,
2013-06-13 11:03:00,61.7,47.4,29.81,NE,45,1.3,3.8,59,0.00,,,0.00,WUHU216HW,2013-06-13 18:03:00,
2013-06-13 11:08:00,61.9,47.4,29.81,SW,225,3.4,3.8,59,0.00,,,0.00,WUHU216HW,2013-06-13 18:08:00,
2013-06-13 11:13:00,62.1,48.2,29.81,NNE,23,2.5,3.8,60,0.00,,,0.00,WUHU216HW,2013-06-13 18:13:00,
2013-06-13 11:18:00,62.3,47.8,29.81,ESE,113,0.9,2.7,59,0.00,,,0.00,WUHU216HW,2013-06-13 18:18:00,
2013-06-13 11:23:00,62.8,48.2,29.81,SSW,203,1.6,4.0,59,0.00,,,0.00,WUHU216HW,2013-06-13 18:23:00,
2013-06-13 11:28:00,63.2,48.6,29.81,SSE,158,4.3,4.3,59,0.00,,,0.00,WUHU216HW,2013-06-13 18:28:00,
2013-06-13 11:33:00,63.5,49.0,29.81,SSE,158,2.0,4.3,59,0.00,,,0.00,WUHU216HW,2013-06-13 18:33:00,
2013-06-13 11:38:00,63.9,49.2,29.81,South,180,0.0,4.0,59,0.00,,,0.00,WUHU216HW,2013-06-13 18:38:00,
2013-06-13 11:43:00,64.3,50.0,29.81,ENE,68,2.2,2.2,60,0.00,,,0.00,WUHU216HW,2013-06-13 18:43:00,
2013-06-13 11:48:00,64.1,49.4,29.81,NNE,23,2.0,4.3,59,0.00,,,0.00,WUHU216HW,2013-06-13 18:48:00,
2013-06-13 11:53:00,64.1,49.4,29.81,SE,135,2.0,4.3,59,0.00,,,0.00,WUHU216HW,2013-06-13 18:53:00,
2013-06-13 11:58:00,64.6,50.0,29.81,SE,135,0.0,2.7,59,0.00,,,0.00,WUHU216HW,2013-06-13 18:58:00,
2013-06-13 12:03:00,65.0,49.8,29.81,SSE,158,4.0,4.0,58,0.00,,,0.00,WUHU216HW,2013-06-13 19:03:00,
2013-06-13 12:08:00,65.3,50.1,29.81,WSW,248,2.9,4.0,58,0.00,,,0.00,WUHU216HW,2013-06-13 19:08:00,
2013-06-13 12:13:00,65.9,50.7,29.81,WSW,248,2.7,4.7,58,0.00,,,0.00,WUHU216HW,2013-06-13 19:13:00,
2013-06-13 12:18:00,66.4,51.2,29.81,SE,135,2.5,4.7,58,0.00,,,0.00,WUHU216HW,2013-06-13 19:18:00,
2013-06-13 12:23:00,66.2,51.0,29.81,NW,315,1.6,4.0,58,0.00,,,0.00,WUHU216HW,2013-06-13 19:23:00,
2013-06-13 12:28:00,66.2,51.0,29.81,NW,315,2.5,4.0,58,0.00,,,0.00,WUHU216HW,2013-06-13 19:28:00,
2013-06-13 12:33:00,67.0,51.7,29.81,WNW,293,1.3,3.4,58,0.00,,,0.00,WUHU216HW,2013-06-13 19:33:00,
2013-06-13 12:38:00,67.7,51.8,29.81,NNW,338,2.9,5.4,57,0.00,,,0.00,WUHU216HW,2013-06-13 19:38:00,
2013-06-13 12:43:00,67.3,51.6,29.81,North,0,4.5,5.4,57,0.00,,,0.00,WUHU216HW,2013-06-13 19:43:00,
2013-06-13 12:48:00,66.4,49.8,29.81,NW,315,1.6,4.7,55,0.00,,,0.00,WUHU216HW,2013-06-13 19:48:00,
2013-06-13 12:53:00,65.9,50.2,29.81,West,270,1.1,4.7,57,0.00,,,0.00,WUHU216HW,2013-06-13 19:53:00,
2013-06-13 12:58:00,65.7,50.1,29.81,NNW,338,2.5,3.4,57,0.00,,,0.00,WUHU216HW,2013-06-13 19:58:00,
2013-06-13 13:03:00,65.3,49.1,29.81,NE,45,4.0,4.0,56,0.00,,,0.00,WUHU216HW,2013-06-13 20:03:00,
2013-06-13 13:08:00,65.2,49.5,29.81,West,270,0.7,4.0,57,0.00,,,0.00,WUHU216HW,2013-06-13 20:08:00,
2013-06-13 13:13:00,65.2,50.0,29.81,WNW,293,1.1,3.4,58,0.00,,,0.00,WUHU216HW,2013-06-13 20:13:00,
2013-06-13 13:18:00,65.5,50.3,29.81,SW,225,1.6,4.3,58,0.00,,,0.00,WUHU216HW,2013-06-13 20:18:00,
2013-06-13 13:23:00,66.1,50.9,29.81,SW,225,3.4,4.3,58,0.00,,,0.00,WUHU216HW,2013-06-13 20:23:00,
2013-06-13 13:28:00,66.2,50.0,29.81,NE,45,2.7,5.8,56,0.00,,,0.00,WUHU216HW,2013-06-13 20:28:00,
2013-06-13 13:33:00,66.2,49.6,29.81,SSE,158,4.0,5.8,55,0.00,,,0.00,WUHU216HW,2013-06-13 20:33:00,
2013-06-13 13:38:00,66.4,49.8,29.81,North,0,0.7,4.0,55,0.00,,,0.00,WUHU216HW,2013-06-13 20:38:00,
2013-06-13 13:43:00,66.2,50.0,29.81,NNW,338,1.6,3.6,56,0.00,,,0.00,WUHU216HW,2013-06-13 20:43:00,
2013-06-13 13:48:00,66.1,49.9,29.81,East,90,2.0,2.5,56,0.00,,,0.00,WUHU216HW,2013-06-13 20:48:00,
2013-06-13 13:53:00,65.9,49.7,29.81,SW,225,1.1,2.5,56,0.00,,,0.00,WUHU216HW,2013-06-13 20:53:00,
2013-06-13 13:58:00,66.2,50.6,29.81,North,0,1.3,1.6,57,0.00,,,0.00,WUHU216HW,2013-06-13 20:58:00,
2013-06-13 14:03:00,67.3,51.6,29.81,NNW,338,1.1,2.5,57,0.00,,,0.00,WUHU216HW,2013-06-13 21:03:00,
2013-06-13 14:08:00,68.0,52.2,29.81,ENE,68,2.0,2.5,57,0.00,,,0.00,WUHU216HW,2013-06-13 21:08:00,
2013-06-13 14:13:00,68.4,52.0,29.81,SSW,203,4.9,4.9,56,0.00,,,0.00,WUHU216HW,2013-06-13 21:13:00,
2013-06-13 14:18:00,69.3,52.9,29.81,NW,315,3.4,4.9,56,0.00,,,0.00,WUHU216HW,2013-06-13 21:18:00,
2013-06-13 14:23:00,69.3,51.0,29.81,NNW,338,4.0,4.5,52,0.00,,,0.00,WUHU216HW,2013-06-13 21:23:00,
2013-06-13 14:28:00,69.3,50.4,29.81,North,0,3.6,4.5,51,0.00,,,0.00,WUHU216HW,2013-06-13 21:28:00,
2013-06-13 14:33:00,69.8,51.9,29.81,North,0,3.1,4.7,53,0.00,,,0.00,WUHU216HW,2013-06-13 21:33:00,
2013-06-13 14:38:00,70.4,51.9,29.81,NNE,23,4.0,4.7,52,0.00,,,0.00,WUHU216HW,2013-06-13 21:38:00,
2013-06-13 14:43:00,70.6,51.6,29.81,North,0,1.8,5.1,51,0.00,,,0.00,WUHU216HW,2013-06-13 21:43:00,
2013-06-13 14:48:00,70.9,52.4,29.81,NW,315,4.7,5.1,52,0.00,,,0.00,WUHU216HW,2013-06-13 21:48:00,
2013-06-13 14:53:00,70.7,51.2,29.81,North,0,0.2,4.7,50,0.00,,,0.00,WUHU216HW,2013-06-13 21:53:00,
2013-06-13 14:58:00,70.2,51.2,29.81,NNW,338,1.6,4.7,51,0.00,,,0.00,WUHU216HW,2013-06-13 21:58:00,
2013-06-13 15:03:00,69.5,50.6,29.81,NNW,338,0.7,4.0,51,0.00,,,0.00,WUHU216HW,2013-06-13 22:03:00,
2013-06-13 15:08:00,68.8,50.0,29.81,South,180,4.0,6.9,51,0.00,,,0.00,WUHU216HW,2013-06-13 22:08:00,
2013-06-13 15:13:00,68.8,50.4,29.81,SW,225,1.1,6.9,52,0.00,,,0.00,WUHU216HW,2013-06-13 22:13:00,
2013-06-13 15:18:00,68.6,50.2,29.81,SSW,203,4.5,5.1,52,0.00,,,0.00,WUHU216HW,2013-06-13 22:18:00,
2013-06-13 15:23:00,68.6,50.2,29.81,WSW,248,5.6,5.6,52,0.00,,,0.00,WUHU216HW,2013-06-13 22:23:00,
2013-06-13 15:28:00,68.8,51.0,29.81,SSE,158,6.0,6.0,53,0.00,,,0.00,WUHU216HW,2013-06-13 22:28:00,
2013-06-13 15:33:00,68.4,50.6,29.81,SSE,158,6.0,6.0,53,0.00,,,0.00,WUHU216HW,2013-06-13 22:33:00,
2013-06-13 15:38:00,68.9,51.1,29.80,SSW,203,5.8,6.0,53,0.00,,,0.00,WUHU216HW,2013-06-13 22:38:00,
2013-06-13 15:43:00,69.8,51.9,29.81,SSW,203,2.5,5.8,53,0.00,,,0.00,WUHU216HW,2013-06-13 22:43:00,
2013-06-13 15:48:00,70.7,52.8,29.81,SW,225,2.0,4.7,53,0.00,,,0.00,WUHU216HW,2013-06-13 22:48:00,
2013-06-13 15:53:00,71.1,52.6,29.81,NNE,23,1.3,4.7,52,0.00,,,0.00,WUHU216HW,2013-06-13 22:53:00,
2013-06-13 15:58:00,70.9,52.4,29.80,WSW,248,4.3,4.3,52,0.00,,,0.00,WUHU216HW,2013-06-13 22:58:00,
2013-06-13 16:03:00,71.6,53.6,29.81,WSW,248,3.8,4.3,53,0.00,,,0.00,WUHU216HW,2013-06-13 23:03:00,
2013-06-13 16:08:00,72.4,54.2,29.80,West,270,3.4,5.4,53,0.00,,,0.00,WUHU216HW,2013-06-13 23:08:00,
2013-06-13 16:13:00,73.1,54.4,29.80,NNE,23,1.6,5.4,52,0.00,,,0.00,WUHU216HW,2013-06-13 23:13:00,
2013-06-13 16:18:00,72.9,52.6,29.80,NNW,338,5.1,5.1,49,0.00,,,0.00,WUHU216HW,2013-06-13 23:18:00,
2013-06-13 16:23:00,72.7,52.4,29.80,NNW,338,5.1,5.1,49,0.00,,,0.00,WUHU216HW,2013-06-13 23:23:00,
2013-06-13 16:28:00,72.4,52.7,29.81,North,0,4.3,5.1,50,0.00,,,0.00,WUHU216HW,2013-06-13 23:28:00,
2013-06-13 16:33:00,71.3,51.1,29.80,North,0,1.8,5.6,49,0.00,,,0.00,WUHU216HW,2013-06-13 23:33:00,
2013-06-13 16:38:00,70.9,51.8,29.81,West,270,0.7,5.6,51,0.00,,,0.00,WUHU216HW,2013-06-13 23:38:00,
2013-06-13 16:43:00,71.1,52.0,29.81,West,270,0.9,3.4,51,0.00,,,0.00,WUHU216HW,2013-06-13 23:43:00,
2013-06-13 16:48:00,71.3,52.2,29.81,SE,135,0.9,3.4,51,0.00,,,0.00,WUHU216HW,2013-06-13 23:48:00,
2013-06-13 16:53:00,71.8,52.7,29.81,West,270,2.9,2.9,51,0.00,,,0.00,WUHU216HW,2013-06-13 23:53:00,
2013-06-13 16:58:00,72.0,52.8,29.81,West,270,1.6,4.7,51,0.00,,,0.00,WUHU216HW,2013-06-13 23:58:00,
2013-06-13 17:03:00,72.0,52.8,29.81,SSW,203,2.7,6.3,51,0.00,,,0.00,WUHU216HW,2013-06-14 00:03:00,
2013-06-13 17:08:00,72.0,52.8,29.81,SSW,203,0.4,6.3,51,0.00,,,0.00,WUHU216HW,2013-06-14 00:08:00,
2013-06-13 17:13:00,71.6,52.6,29.81,SW,225,4.9,5.6,51,0.00,,,0.00,WUHU216HW,2013-06-14 00:13:00,
2013-06-13 17:18:00,71.5,52.4,29.81,SSE,158,3.8,5.6,51,0.00,,,0.00,WUHU216HW,2013-06-14 00:18:00,
2013-06-13 17:23:00,71.6,53.0,29.81,SSW,203,4.0,4.7,52,0.00,,,0.00,WUHU216HW,2013-06-14 00:23:00,
2013-06-13 17:28:00,71.3,52.2,29.81,WSW,248,0.0,4.7,51,0.00,,,0.00,WUHU216HW,2013-06-14 00:28:00,
2013-06-13 17:33:00,70.7,51.8,29.81,WNW,293,0.7,4.7,51,0.00,,,0.00,WUHU216HW,2013-06-14 00:33:00,
2013-06-13 17:38:00,70.6,52.0,29.81,WSW,248,2.5,2.5,52,0.00,,,0.00,WUHU216HW,2013-06-14 00:38:00,
2013-06-13 17:43:00,70.6,52.0,29.81,West,270,0.9,2.5,52,0.00,,,0.00,WUHU216HW,2013-06-14 00:43:00,
2013-06-13 17:48:00,70.9,52.4,29.81,SW,225,3.8,3.8,52,0.00,,,0.00,WUHU216HW,2013-06-14 00:48:00,
2013-06-13 17:53:00,71.5,52.8,29.81,WSW,248,5.1,5.4,52,0.00,,,0.00,WUHU216HW,2013-06-14 00:53:00,
2013-06-13 17:58:00,72.0,53.4,29.81,SSE,158,1.8,5.4,52,0.00,,,0.00,WUHU216HW,2013-06-14 00:58:00,
2013-06-13 18:03:00,71.8,52.2,29.81,WSW,248,2.0,6.7,50,0.00,,,0.00,WUHU216HW,2013-06-14 01:03:00,
2013-06-13 18:08:00,71.6,52.6,29.81,South,180,2.5,6.7,51,0.00,,,0.00,WUHU216HW,2013-06-14 01:08:00,
2013-06-13 18:13:00,71.5,51.8,29.81,SSW,203,5.4,7.4,50,0.00,,,0.00,WUHU216HW,2013-06-14 01:13:00,
2013-06-13 18:18:00,70.9,50.8,29.81,SW,225,2.2,7.4,49,0.00,,,0.00,WUHU216HW,2013-06-14 01:18:00,
2013-06-13 18:23:00,72.4,53.2,29.81,SE,135,5.4,5.4,51,0.00,,,0.00,WUHU216HW,2013-06-14 01:23:00,
2013-06-13 18:28:00,72.7,52.4,29.81,SSE,158,4.0,5.4,49,0.00,,,0.00,WUHU216HW,2013-06-14 01:28:00,
2013-06-13 18:33:00,71.8,51.6,29.81,West,270,2.5,5.4,49,0.00,,,0.00,WUHU216HW,2013-06-14 01:33:00,
2013-06-13 18:38:00,70.9,51.4,29.81,SSW,203,2.9,4.0,50,0.00,,,0.00,WUHU216HW,2013-06-14 01:38:00,
2013-06-13 18:43:00,70.4,50.9,29.81,SW,225,2.0,4.0,50,0.00,,,0.00,WUHU216HW,2013-06-14 01:43:00,
2013-06-13 18:48:00,69.8,51.0,29.81,SSW,203,3.6,4.0,51,0.00,,,0.00,WUHU216HW,2013-06-14 01:48:00,
2013-06-13 18:53:00,69.5,50.6,29.81,West,270,4.3,4.3,51,0.00,,,0.00,WUHU216HW,2013-06-14 01:53:00,
2013-06-13 18:58:00,68.9,50.1,29.81,WSW,248,4.0,4.3,51,0.00,,,0.00,WUHU216HW,2013-06-14 01:58:00,
2013-06-13 19:03:00,68.8,50.0,29.81,WSW,248,2.5,4.0,51,0.00,,,0.00,WUHU216HW,2013-06-14 02:03:00,
2013-06-13 19:08:00,69.1,50.2,29.81,West,270,2.5,4.0,51,0.00,,,0.00,WUHU216HW,2013-06-14 02:08:00,
2013-06-13 19:13:00,68.8,50.0,29.81,WSW,248,4.3,4.3,51,0.00,,,0.00,WUHU216HW,2013-06-14 02:13:00,
2013-06-13 19:18:00,68.0,49.8,29.81,WSW,248,2.0,4.3,52,0.00,,,0.00,WUHU216HW,2013-06-14 02:18:00,
2013-06-13 19:23:00,67.9,49.6,29.81,WSW,248,2.2,4.0,52,0.00,,,0.00,WUHU216HW,2013-06-14 02:23:00,
2013-06-13 19:28:00,68.4,50.0,29.81,SW,225,1.6,3.8,52,0.00,,,0.00,WUHU216HW,2013-06-14 02:28:00,
2013-06-13 19:33:00,68.4,50.0,29.81,WSW,248,2.5,2.5,52,0.00,,,0.00,WUHU216HW,2013-06-14 02:33:00,
2013-06-13 19:38:00,68.0,49.8,29.81,South,180,2.2,4.0,52,0.00,,,0.00,WUHU216HW,2013-06-14 02:38:00,
2013-06-13 19:43:00,67.5,49.2,29.81,SSW,203,1.3,4.0,52,0.00,,,0.00,WUHU216HW,2013-06-14 02:43:00,
2013-06-13 19:48:00,67.1,49.4,29.81,South,180,3.1,3.8,53,0.00,,,0.00,WUHU216HW,2013-06-14 02:48:00,
2013-06-13 19:53:00,67.0,49.2,29.81,South,180,4.7,4.7,53,0.00,,,0.00,WUHU216HW,2013-06-14 02:53:00,
2013-06-13 19:58:00,66.6,49.0,29.81,SW,225,2.7,4.7,53,0.00,,,0.00,WUHU216HW,2013-06-14 02:58:00,
2013-06-13 20:03:00,66.6,49.0,29.81,WSW,248,2.5,3.4,53,0.00,,,0.00,WUHU216HW,2013-06-14 03:03:00,
2013-06-13 20:08:00,66.4,49.2,29.82,WSW,248,2.5,3.4,54,0.00,,,0.00,WUHU216HW,2013-06-14 03:08:00,
2013-06-13 20:13:00,65.9,48.8,29.82,SSW,203,2.5,3.6,54,0.00,,,0.00,WUHU216HW,2013-06-14 03:13:00,
2013-06-13 20:18:00,65.5,48.4,29.82,WSW,248,0.7,3.6,54,0.00,,,0.00,WUHU216HW,2013-06-14 03:18:00,
2013-06-13 20:23:00,65.0,48.3,29.82,SW,225,4.0,4.0,55,0.00,,,0.00,WUHU216HW,2013-06-14 03:23:00,
2013-06-13 20:28:00,64.4,47.8,29.82,WSW,248,2.5,4.0,55,0.00,,,0.00,WUHU216HW,2013-06-14 03:28:00,
2013-06-13 20:34:00,63.9,47.8,29.82,WSW,248,0.0,2.5,56,0.00,,,0.00,WUHU216HW,2013-06-14 03:34:00,
2013-06-13 20:39:00,63.7,47.6,29.82,WSW,248,0.2,1.6,56,0.00,,,0.00,WUHU216HW,2013-06-14 03:39:00,
2013-06-13 20:44:00,63.4,47.8,29.82,SSE,158,2.7,2.7,57,0.00,,,0.00,WUHU216HW,2013-06-14 03:44:00,
2013-06-13 20:49:00,62.6,47.2,29.82,South,180,0.7,3.1,57,0.00,,,0.00,WUHU216HW,2013-06-14 03:49:00,
2013-06-13 20:54:00,62.6,47.2,29.82,South,180,2.9,3.1,57,0.00,,,0.00,WUHU216HW,2013-06-14 03:54:00,
2013-06-13 20:59:00,62.6,47.2,29.82,South,180,2.9,2.9,57,0.00,,,0.00,WUHU216HW,2013-06-14 03:59:00,
2013-06-13 21:00:00,61.7,46.8,29.82,SSE,158,2.7,2.7,58,0.00,,,0.00,WUHU216HW,2013-06-14 04:00:00,
2013-06-13 21:01:00,61.7,46.8,29.82,SSE,158,2.7,2.7,58,0.00,,,0.00,WUHU216HW,2013-06-14 04:01:00,
2013-06-13 21:06:00,61.7,46.8,29.82,SSE,158,2.7,2.7,58,0.00,,,0.00,WUHU216HW,2013-06-14 04:06:00,
2013-06-13 21:30:00,60.5,46.6,29.83,SW,225,0.7,0.7,60,0.00,,,0.00,WUHU216HW,2013-06-14 04:30:00,
2013-06-13 21:35:00,60.5,46.6,29.83,SW,225,0.7,0.7,60,0.00,,,0.00,WUHU216HW,2013-06-14 04:35:00,
2013-06-13 22:00:00,59.4,46.0,29.84,WSW,248,5.1,5.1,61,0.00,,,0.00,WUHU216HW,2013-06-14 05:00:00,
2013-06-13 22:05:00,59.4,46.0,29.84,WSW,248,5.1,5.1,61,0.00,,,0.00,WUHU216HW,2013-06-14 05:05:00,
2013-06-13 22:30:00,58.9,44.6,29.84,West,270,1.8,1.8,59,0.00,,,0.00,WUHU216HW,2013-06-14 05:30:00,
2013-06-13 22:35:00,58.9,44.6,29.84,West,270,1.8,1.8,59,0.00,,,0.00,WUHU216HW,2013-06-14 05:35:00,
2013-06-13 23:00:00,58.0,43.7,29.84,NNW,338,2.7,2.7,59,0.00,,,0.00,WUHU216HW,2013-06-14 06:00:00,
2013-06-13 23:05:00,58.0,43.7,29.84,NNW,338,2.7,2.7,59,0.00,,,0.00,WUHU216HW,2013-06-14 06:05:00,
2013-06-13 23:30:00,56.7,41.6,29.84,NW,315,2.5,2.5,57,0.00,,,0.00,WUHU216HW,2013-06-14 06:30:00,
2013-06-13 23:35:00,56.7,41.6,29.84,NW,315,2.5,2.5,57,0.00,,,0.00,WUHU216HW,2013-06-14 06:35:00,